Flag for Germany Weather past 2 weeks in Königs Wusterhausen, Brandenburg, Germany

41 °F

Passing clouds.

Feels Like: 33 °F
Forecast: 41 / 50 °F
Wind: 16 mph from West

Location: Berlin-Schoenefeld

Current Time: Dec 1, 2015 at 5:58:16 AM

Latest Report: Dec 1, 2015 at 5:20 AM

Visibility: N/A

Pressure: 29.92 "Hg

Humidity: 87%

Dew point: 37 °F

Location of Königs WusterhausenLocation

Historic Weather in Königs Wusterhausen — Graph


Königs Wusterhausen temperature yesterday

Maximum temperature yesterday: 46 °F (at 12:50 AM)
Minimum temperature yesterday: 37 °F (at 6:50 PM)
Average temperature yesterday: 43 °F

Past Weeks' High & Low Weather Summary

High57 °F (Nov 17, 4:50 PM)100% (Nov 16, 5:50 AM)30.24 "Hg (Nov 16, 5:50 AM)
Low27 °F (Nov 23, 10:50 PM)57% (Nov 30, 11:20 AM)29.33 "Hg (Nov 21, 1:50 PM)
Average42 °F87%29.77 "Hg
* Reported Nov 16 4:50 AM — Dec 1 4:20 AM, Königs Wusterhausen, Weather by CustomWeather, © 2015

Note: Actual official high and low records may vary slightly from our data, if they occured in-between our weather recording intervals... More about our weather records


Königs Wusterhausen weather history for previous 24 hours

Time TempWeatherWind HumidityBarometerVisibility
4:20 AM
Tue, Dec 1
41 °FPassing clouds.16 mph93%29.86 "HgN/A
3:50 AM41 °FPassing clouds.16 mph93%29.83 "HgN/A
3:20 AM41 °FPassing clouds.17 mph87%29.80 "HgN/A
2:50 AM41 °FPassing clouds.22 mph93%29.77 "HgN/A
2:20 AM45 °FPassing clouds.15 mph93%29.71 "HgN/A
1:50 AM46 °FLight rain. Mostly cloudy.16 mph93%29.68 "HgN/A
12:50 AM48 °FLight rain. Passing clouds.17 mph94%29.62 "HgN/A
11:50 PM
Mon, Nov 30
46 °FLight rain. Overcast.21 mph93%29.62 "HgN/A
11:20 PM46 °FLight rain. Mostly cloudy.20 mph93%29.62 "HgN/A
10:50 PM43 °FLight rain. Mostly cloudy.14 mph100%29.62 "HgN/A
10:20 PM41 °FLight rain. Mostly cloudy.12 mph100%29.65 "HgN/A
9:50 PM39 °FLight rain. Passing clouds.9 mph100%29.68 "HgN/A
9:20 PM37 °FLight rain. Passing clouds.5 mph100%29.71 "HgN/A
8:50 PM37 °FLight rain. Partly cloudy.5 mph100%29.74 "HgN/A
8:20 PM37 °FLight rain. Partly cloudy.6 mph93%29.77 "HgN/A
7:50 PM37 °FLight rain. Passing clouds.6 mph100%29.77 "HgN/A
7:20 PM37 °FLight rain. Mostly cloudy.8 mph100%29.80 "HgN/A
6:50 PM37 °FLight rain. Mostly cloudy.9 mph100%29.83 "HgN/A
6:20 PM39 °FLight rain. Partly cloudy.14 mph93%29.83 "HgN/A
5:50 PM39 °FLight rain. Mostly cloudy.15 mph87%29.86 "HgN/A
5:20 PM41 °FLight rain. Passing clouds.22 mph81%29.86 "HgN/A
4:50 PM43 °FClear.14 mph71%29.86 "Hg10 mi
4:20 PM43 °FClear.14 mph71%29.86 "Hg10 mi
3:50 PM43 °FSunny.15 mph71%29.89 "Hg10 mi
3:20 PM45 °FOvercast.15 mph66%29.89 "HgN/A
2:50 PM45 °FOvercast.17 mph66%29.89 "HgN/A
2:20 PM45 °FMore clouds than sun.22 mph66%29.89 "HgN/A
1:50 PM45 °FMore clouds than sun.21 mph66%29.89 "HgN/A
1:20 PM45 °FPartly sunny.24 mph66%29.89 "HgN/A
12:50 PM46 °FPartly sunny.25 mph57%29.89 "HgN/A
12:20 PM46 °FBroken clouds.25 mph62%29.89 "HgN/A
11:50 AM46 °FBroken clouds.25 mph57%29.89 "HgN/A
11:20 AM46 °FPartly sunny.28 mph57%29.89 "HgN/A
10:50 AM45 °FScattered clouds.33 mph66%29.89 "HgN/A
10:20 AM45 °FScattered clouds.24 mph66%29.86 "HgN/A
9:50 AM45 °FBroken clouds.26 mph71%29.86 "HgN/A
9:20 AM41 °FSprinkles. Partly sunny.36 mph81%29.86 "HgN/A
7:50 AM43 °FPassing clouds.24 mph71%29.80 "HgN/A
7:20 AM43 °FPassing clouds.24 mph76%29.77 "HgN/A
6:50 AM43 °FPassing clouds.25 mph76%29.77 "HgN/A
6:20 AM43 °FClear.28 mph71%29.74 "Hg10 mi
5:50 AM43 °FPassing clouds.24 mph76%29.74 "HgN/A
5:20 AM43 °FPassing clouds.26 mph71%29.71 "HgN/A
Weather by CustomWeather, © 2015

See weather overviewHow to use our weather pages